Home > Time Zones > World Clock > Weather > Chile > Arica > Past weeks

Flag Weather past 2 weeks in Arica, Chile

Now
68 °F

Overcast.


Feels Like: 68 °F
Forecast: 68 / 74 °F
Wind: 5 mph from Southwest

Location: Arica Airport

Current Time: Nov 27, 2014 at 10:23:15 AM

Latest Report: Nov 27, 2014 at 10:00 AM


Visibility: N/A

Pressure: 29.98 "Hg

Humidity: 60%

Dew point: 54 °F

Location of AricaLocation

Historic Weather in Arica — Graph

°F

Arica temperature yesterday

Maximum temperature yesterday: 73 °F (at 1:00 PM)
Minimum temperature yesterday: 64 °F (at 12:00 AM)
Average temperature yesterday: 68 °F

Past Weeks' High & Low Weather Summary

 TemperatureHumidityPressure
High75 °F (Nov 12, 2:00 PM)83% (Nov 17, 12:00 AM)30.07 "Hg (Nov 17, 12:00 AM)
Low59 °F (Nov 22, 5:00 AM)47% (Nov 13, 11:00 AM)29.89 "Hg (Nov 16, 6:00 PM)
Average68 °F64%29.97 "Hg
* Reported Nov 12 9:00 AM — Nov 27 9:00 AM, Arica, Weather by CustomWeather, © 2014

Note: Actual official high and low records may vary slightly from our data, if they occured in-between our weather recording intervals... More about our weather records

Advertising

Arica weather history for previous 24 hours

 ConditionsComfort  
Time TempWeatherWind HumidityBarometerVisibility
9:00 AM
Nov 27
68 °FOvercast.2 mph64%29.98 "HgN/A
8:00 AM66 °FOvercast.2 mph68%29.98 "HgN/A
7:00 AM66 °FOvercast.2 mph73%29.95 "HgN/A
6:00 AM66 °FOvercast.2 mph73%29.95 "HgN/A
5:00 AM66 °FOvercast.2 mph73%29.95 "HgN/A
4:00 AM66 °FOvercast.2 mph73%29.95 "HgN/A
3:00 AM66 °FOvercast.3 mph68%29.98 "HgN/A
2:00 AM68 °FOvercast.2 mph64%29.98 "HgN/A
1:00 AM66 °FOvercast.6 mph68%30.01 "HgN/A
12:00 AM68 °FOvercast.7 mph64%30.01 "HgN/A
11:00 PM
Nov 26
66 °FOvercast.7 mph68%30.01 "HgN/A
10:00 PM66 °FOvercast.7 mph73%30.01 "HgN/A
9:00 PM68 °FOvercast.9 mph69%29.98 "HgN/A
8:00 PM68 °FPartly sunny.9 mph69%29.95 "HgN/A
7:00 PM68 °FSunny.10 mph69%29.95 "Hg10 mi
6:00 PM70 °FSunny.14 mph64%29.92 "Hg10 mi
5:00 PM70 °FSunny.16 mph64%29.92 "Hg10 mi
4:00 PM70 °FSunny.14 mph64%29.92 "Hg10 mi
3:00 PM72 °FSunny.14 mph57%29.92 "Hg10 mi
2:00 PM73 °FSunny.13 mph50%29.92 "Hg10 mi
1:00 PM73 °FSunny.13 mph50%29.95 "Hg10 mi
12:00 PM72 °FScattered clouds.9 mph53%29.95 "HgN/A
11:00 AM70 °FOvercast.7 mph57%29.98 "HgN/A
10:00 AM68 °FOvercast.2 mph60%29.98 "HgN/A
Weather by CustomWeather, © 2014

See weather overviewHow to use our weather pages